TimeEST,TemperatureF,Dew PointF,Humidity,Sea Level PressureIn,VisibilityMPH,Wind Direction,Wind SpeedMPH,Gust SpeedMPH,PrecipitationIn,Events,Conditions,WindDirDegrees,DateUTC
12:06 AM,30.2,28.4,93,29.97,0.8,NNW,4.6,-,0.00,Snow,Light Snow,340,2013-01-02 05:06:00
12:14 AM,30.2,28.4,93,29.97,1.2,NNW,4.6,-,0.00,Snow,Light Snow,330,2013-01-02 05:14:00
12:34 AM,30.2,28.4,93,29.97,0.5,NNW,6.9,-,0.00,Fog-Snow,Light Snow,340,2013-01-02 05:34:00
12:46 AM,30.2,28.4,93,29.97,2.0,NNW,8.1,-,0.00,Snow,Light Snow,340,2013-01-02 05:46:00
12:47 AM,30.0,28.9,96,30.06,2.0,NNW,6.9,-,0.00,Snow,Light Snow,340,2013-01-02 05:47:00
1:06 AM,30.2,28.4,93,29.97,4.0,North,9.2,-,0.00,Snow,Light Snow,350,2013-01-02 06:06:00
1:51 AM,30.0,27.0,88,30.06,10.0,NNW,6.9,-,0.00,,Overcast,340,2013-01-02 06:51:00
1:59 AM,30.2,26.6,86,29.98,8.0,NNW,8.1,-,N/A,,Overcast,330,2013-01-02 06:59:00
2:38 AM,28.4,26.6,93,29.99,10.0,WNW,4.6,-,0.00,,Overcast,290,2013-01-02 07:38:00
2:51 AM,28.9,27.0,92,30.06,10.0,NW,3.5,-,0.00,,Overcast,320,2013-01-02 07:51:00
3:23 AM,28.4,26.6,93,29.98,10.0,NW,3.5,-,N/A,,Overcast,310,2013-01-02 08:23:00
3:51 AM,28.9,27.0,92,30.06,10.0,NW,3.5,-,N/A,,Overcast,310,2013-01-02 08:51:00
4:19 AM,28.4,26.6,93,29.97,10.0,NNW,5.8,-,N/A,,Overcast,330,2013-01-02 09:19:00
4:51 AM,28.9,27.0,92,30.07,8.0,NNW,11.5,-,N/A,,Overcast,330,2013-01-02 09:51:00
5:03 AM,28.4,26.6,93,29.98,1.8,NNW,11.5,-,N/A,,Overcast,340,2013-01-02 10:03:00
5:14 AM,28.4,26.6,93,29.99,0.5,NNW,11.5,-,N/A,Fog,Light Freezing Fog,340,2013-01-02 10:14:00
5:37 AM,28.4,26.6,93,30.00,1.0,NNW,13.8,-,N/A,,Overcast,340,2013-01-02 10:37:00
5:51 AM,27.0,25.0,92,30.10,0.8,NNW,10.4,-,N/A,,Overcast,340,2013-01-02 10:51:00
6:05 AM,26.6,24.8,93,30.02,1.0,NNW,11.5,-,N/A,,Overcast,330,2013-01-02 11:05:00
6:12 AM,26.6,24.8,93,30.02,0.8,NNW,8.1,-,N/A,,Overcast,330,2013-01-02 11:12:00
6:29 AM,26.6,26.6,100,30.03,0.2,NW,9.2,-,N/A,Fog,Light Freezing Fog,320,2013-01-02 11:29:00
6:42 AM,26.6,24.8,93,30.03,0.5,NW,10.4,-,N/A,Fog,Light Freezing Fog,310,2013-01-02 11:42:00
6:51 AM,27.0,25.0,92,30.13,0.5,NNW,8.1,-,N/A,Fog,Light Freezing Fog,340,2013-01-02 11:51:00
7:04 AM,26.6,24.8,93,30.03,2.0,North,10.4,-,N/A,,Overcast,350,2013-01-02 12:04:00
7:16 AM,26.6,24.8,93,30.04,3.0,NNW,11.5,-,N/A,,Overcast,340,2013-01-02 12:16:00
7:51 AM,26.1,24.1,92,30.15,6.0,NNW,4.6,-,N/A,,Overcast,340,2013-01-02 12:51:00
8:06 AM,26.6,23.0,86,30.07,8.0,NW,4.6,-,N/A,,Overcast,320,2013-01-02 13:06:00
8:51 AM,26.1,23.0,88,30.18,7.0,NNW,5.8,-,N/A,,Overcast,340,2013-01-02 13:51:00
9:51 AM,26.1,23.0,88,30.18,7.0,North,4.6,-,N/A,,Overcast,350,2013-01-02 14:51:00
10:01 AM,26.6,21.2,80,30.09,8.0,North,4.6,-,N/A,,Mostly Cloudy,350,2013-01-02 15:01:00
10:11 AM,26.6,21.2,80,30.09,9.0,North,3.5,-,N/A,,Mostly Cloudy,350,2013-01-02 15:11:00
10:20 AM,26.6,21.2,80,30.08,9.0,NNW,3.5,-,N/A,,Scattered Clouds,330,2013-01-02 15:20:00
10:51 AM,26.1,21.0,81,30.19,10.0,NNW,4.6,-,N/A,,Scattered Clouds,340,2013-01-02 15:51:00
10:59 AM,26.6,21.2,80,30.10,10.0,North,4.6,-,N/A,,Mostly Cloudy,360,2013-01-02 15:59:00
11:36 AM,26.6,19.4,74,30.08,10.0,WNW,4.6,-,N/A,,Scattered Clouds,290,2013-01-02 16:36:00
11:51 AM,26.6,19.4,74,30.07,10.0,WNW,4.6,-,N/A,,Partly Cloudy,290,2013-01-02 16:51:00
12:49 PM,28.4,21.2,74,30.07,10.0,NNW,4.6,-,N/A,,Mostly Cloudy,330,2013-01-02 17:49:00
12:51 PM,28.0,21.0,75,30.17,10.0,NNW,5.8,-,N/A,,Mostly Cloudy,330,2013-01-02 17:51:00
1:51 PM,28.0,21.0,75,30.16,10.0,NW,3.5,-,N/A,,Mostly Cloudy,320,2013-01-02 18:51:00
2:08 PM,28.4,19.4,69,30.07,10.0,NNW,4.6,-,N/A,,Scattered Clouds,340,2013-01-02 19:08:00
2:51 PM,28.0,21.0,75,30.17,10.0,NNW,8.1,-,N/A,,Partly Cloudy,340,2013-01-02 19:51:00
3:51 PM,28.0,19.0,69,30.17,10.0,NNW,5.8,-,N/A,,Partly Cloudy,340,2013-01-02 20:51:00
4:51 PM,27.0,18.0,69,30.18,10.0,NNE,3.5,-,N/A,,Clear,30,2013-01-02 21:51:00
5:51 PM,26.1,17.1,69,30.18,10.0,NNE,3.5,-,N/A,,Clear,30,2013-01-02 22:51:00
6:51 PM,25.0,18.0,75,30.20,10.0,NNE,3.5,-,N/A,,Clear,30,2013-01-02 23:51:00
7:46 PM,24.8,17.6,74,30.12,10.0,Calm,Calm,-,N/A,,Mostly Cloudy,0,2013-01-03 00:46:00
7:51 PM,25.0,18.0,75,30.23,10.0,Calm,Calm,-,N/A,,Scattered Clouds,0,2013-01-03 00:51:00
8:04 PM,24.8,17.6,74,30.11,10.0,Calm,Calm,-,N/A,,Mostly Cloudy,0,2013-01-03 01:04:00
8:29 PM,24.8,17.6,74,30.12,10.0,Calm,Calm,-,N/A,,Scattered Clouds,0,2013-01-03 01:29:00
8:51 PM,25.0,18.0,75,30.23,10.0,Calm,Calm,-,N/A,,Clear,0,2013-01-03 01:51:00
9:51 PM,24.1,18.0,77,30.23,10.0,NE,3.5,-,N/A,,Clear,40,2013-01-03 02:51:00
10:51 PM,21.9,19.0,89,30.25,10.0,Calm,Calm,-,N/A,,Clear,0,2013-01-03 03:51:00
11:51 PM,21.9,19.0,89,30.25,10.0,Calm,Calm,-,N/A,,Clear,0,2013-01-03 04:51:00